Sioux Falls, SD

9:24 AM CDT on October 15, 2019 (GMT -0500)
Foss

Weather History for KFSD - August, 2019

Change the Weather History Date:

Friday, August 30, 2019

  Actual Average Record
Temperature  
Mean Temperature 62 °F 68 °F  
Max Temperature 73 °F 79 °F 104 °F (2012)
Min Temperature 49 °F 57 °F 37 °F (1893)
Degree Days  
Heating Degree Days 4 2  
Month to date heating degree days 3 19  
Since 1 June heating degree days 23 78  
Since 1 July heating degree days 3 27  
Cooling Degree Days 0 5  
Month to date cooling degree days 178 195  
Year to date cooling degree days 706 622  
Since 1 June cooling degree days 691 586  
Growing Degree Days 12 (Base 50)    
Moisture  
Dew Point 52 °F    
Average Humidity 67    
Maximum Humidity 93    
Minimum Humidity 43    
Precipitation  
Precipitation 0.07 in 0.11 in 1.76 in (1962)
Month to date precipitation 2.54 2.95  
Year to date precipitation 29.73 19.29  
Snow  
Snow 0.00 in 0.00 in 0.00 in ()
Month to date snowfall T 0.0  
Since 1 June snowfall T 0.0  
Since 1 July snowfall T 0.0  
Snow Depth 0.00 in    
Sea Level Pressure  
Sea Level Pressure 30.19 in    
Wind  
Wind Speed 4 mph ()    
Max Wind Speed 13 mph    
Max Gust Speed 16 mph    
Visibility 9.9 miles    
Events Rain    
T = Trace of Precipitation, MM = Missing Value Source: Averaged Metar Reports

Daily Weather History Graph

Daily Weather History Graph

Search for Another Location

Airport or City:

Astronomy

Aug. 30, 2019 Rise Set
Actual Time 6:48 AM CDT 8:06 PM CDT
Civil Twilight 6:18 AM CDT 8:35 PM CDT
Nautical Twilight 5:42 AM CDT 9:11 PM CDT
Astronomical Twilight 5:05 AM CDT 9:48 PM CDT
Moon 6:48 AM CDT (8/30) 8:43 PM CDT (8/30)
Length of Visible Light 14h 17m
Length of Day
13h 17m
New Moon, 0% of the Moon is Illuminated
Aug 30
New Moon
Sep 5
First Quarter
Sep 13
Full
Sep 21
Last Quarter
Sep 28
New

Hourly Weather History & Observations

Time (CDT) Temp. Dew Point Humidity Pressure Visibility Wind Dir Wind Speed Gust Speed Precip Events Conditions
12:56 AM 55.0 °F 50.0 °F 83% 30.07 in 10.0 mi NNE 6.9 mph - N/A   Clear
1:56 AM 57.0 °F 51.1 °F 81% 30.08 in 10.0 mi NNE 9.2 mph - N/A   Clear
2:56 AM 54.0 °F 50.0 °F 86% 30.13 in 10.0 mi South 5.8 mph - N/A   Clear
4:56 AM 52.0 °F 48.9 °F 89% 30.18 in 10.0 mi Calm Calm - N/A   Partly Cloudy
5:56 AM 52.0 °F 48.9 °F 89% 30.18 in 10.0 mi Calm Calm - N/A   Scattered Clouds
6:56 AM 51.1 °F 48.0 °F 89% 30.21 in 10.0 mi Calm Calm - N/A   Partly Cloudy
7:56 AM 54.0 °F 52.0 °F 93% 30.22 in 10.0 mi Calm Calm - N/A   Partly Cloudy
8:56 AM 62.1 °F 54.0 °F 75% 30.21 in 10.0 mi Calm Calm - N/A   Scattered Clouds
9:56 AM 66.0 °F 54.0 °F 65% 30.20 in 10.0 mi ENE 4.6 mph - N/A   Mostly Cloudy
10:56 AM 70.0 °F 50.0 °F 49% 30.21 in 10.0 mi East 8.1 mph - N/A   Mostly Cloudy
11:56 AM 71.1 °F 48.9 °F 45% 30.21 in 10.0 mi Variable 3.5 mph - N/A   Mostly Cloudy
12:56 PM 73.0 °F 51.1 °F 46% 30.21 in 10.0 mi Calm Calm - N/A   Mostly Cloudy
1:56 PM 72.0 °F 48.0 °F 43% 30.21 in 10.0 mi North 4.6 mph - N/A   Mostly Cloudy
2:56 PM 72.0 °F 48.9 °F 44% 30.21 in 10.0 mi North 5.8 mph - N/A   Overcast
3:56 PM 72.0 °F 51.1 °F 48% 30.20 in 10.0 mi North 5.8 mph - N/A   Mostly Cloudy
4:56 PM 69.1 °F 53.1 °F 57% 30.18 in 10.0 mi ENE 10.4 mph - 0.00 in   Overcast
5:56 PM 70.0 °F 54.0 °F 57% 30.18 in 10.0 mi East 4.6 mph - N/A   Mostly Cloudy
6:56 PM 69.1 °F 54.0 °F 58% 30.19 in 10.0 mi ENE 6.9 mph - N/A   Mostly Cloudy
7:56 PM 66.9 °F 54.0 °F 63% 30.17 in 10.0 mi East 8.1 mph - N/A   Mostly Cloudy
8:56 PM 66.9 °F 53.1 °F 61% 30.21 in 10.0 mi SE 6.9 mph - 0.00 in   Overcast
9:56 PM 64.9 °F 55.0 °F 70% 30.24 in 10.0 mi SSE 6.9 mph - 0.00 in Rain Light Rain
10:56 PM 63.0 °F 55.9 °F 78% 30.25 in 8.0 mi SE 6.9 mph - 0.05 in Rain Rain
11:56 PM 61.0 °F 55.9 °F 83% 30.24 in 10.0 mi East 6.9 mph - 0.02 in   Overcast